Home > Time Zones > World Clock > Weather > U.S.A. > Mesa > Past weeks

Flag for U.S.A. Weather past 2 weeks in Mesa, Arizona, U.S.A.

Now
50 °F

Passing clouds.


Feels Like: 48 °F
Forecast: 48 / 74 °F
Wind: 5 mph from Southeast

Location: Williams Gateway Airport

Current Time: Jan 28, 2015 at 6:04:50 AM

Latest Report: Jan 28, 2015 at 4:50 AM


Visibility: 20 mi

Pressure: 30.17 "Hg

Humidity: 94%

Dew point: 48 °F

Location of MesaLocation

Historic Weather in Mesa — Graph

°F

Mesa temperature yesterday

Maximum temperature yesterday: 68 °F (at 2:47 PM)
Minimum temperature yesterday: 50 °F (at 2:55 AM)
Average temperature yesterday: 55 °F

Past Weeks' High & Low Weather Summary

 TemperatureHumidityPressure
High73 °F (Jan 24, 1:47 PM)100% (Jan 13, 7:50 AM)30.36 "Hg (Jan 13, 7:50 AM)
Low36 °F (Jan 23, 6:47 AM)8% (Jan 24, 2:50 PM)29.85 "Hg (Jan 21, 4:35 AM)
Average51 °F59%30.15 "Hg
* Reported Jan 13 4:15 AM — Jan 28 4:50 AM, Mesa, Weather by CustomWeather, © 2014

Note: Actual official high and low records may vary slightly from our data, if they occured in-between our weather recording intervals... More about our weather records

Advertising

Mesa weather history for previous 24 hours

 ConditionsComfort  
Time TempWeatherWind HumidityBarometerVisibility
4:50 AM
Jan 28
50 °FPassing clouds.5 mph94%30.17 "Hg20 mi
4:35 AM48 °FClear.6 mph94%30.17 "Hg10 mi
4:15 AM50 °FClear.5 mph88%30.17 "Hg10 mi
3:55 AM48 °FClear.6 mph94%30.17 "Hg10 mi
3:35 AM48 °FClear.6 mph94%30.16 "Hg10 mi
3:15 AM48 °FClear.7 mph94%30.16 "Hg10 mi
2:55 AM48 °FClear.5 mph94%30.17 "Hg10 mi
2:35 AM48 °FClear.6 mph94%30.17 "Hg10 mi
2:15 AM48 °FClear.7 mph94%30.17 "Hg10 mi
1:55 AM50 °FClear.7 mph88%30.17 "Hg10 mi
1:35 AM50 °FClear.5 mph94%30.17 "Hg10 mi
1:15 AM52 °FClear.3 mph88%30.17 "Hg10 mi
12:55 AM52 °FClear.6 mph88%30.18 "Hg10 mi
12:15 AM52 °FClear.5 mph94%30.18 "Hg10 mi
11:48 PM
Jan 27
54 °FPassing clouds.5 mph88%30.19 "Hg20 mi
10:47 PM54 °FPassing clouds.5 mph94%30.18 "Hg20 mi
9:47 PM57 °FPassing clouds.No wind82%30.17 "Hg20 mi
8:47 PM59 °FPassing clouds.3 mph77%30.17 "Hg20 mi
7:47 PM61 °FPassing clouds.3 mph77%30.17 "Hg20 mi
6:47 PM63 °FPassing clouds.No wind77%30.16 "Hg20 mi
5:47 PM66 °FBroken clouds.3 mph64%30.15 "Hg20 mi
3:47 PM68 °FBroken clouds.3 mph56%30.17 "Hg35 mi
2:47 PM68 °FBroken clouds.3 mph56%30.18 "Hg35 mi
1:47 PM66 °FPartly sunny.3 mph60%30.19 "Hg35 mi
12:47 PM64 °FScattered clouds.No wind56%30.22 "Hg35 mi
11:47 AM63 °FScattered clouds.5 mph59%30.26 "Hg35 mi
10:47 AM59 °FScattered clouds.5 mph77%30.28 "Hg35 mi
9:49 AM55 °FMore clouds than sun.6 mph88%30.27 "Hg35 mi
9:00 AM50 °FCool.6 mph100%30.29 "Hg1 mi
7:47 AM50 °FBroken clouds.3 mph94%30.24 "Hg35 mi
6:50 AM50 °FPartly cloudy.3 mph94%30.23 "Hg20 mi
Weather by CustomWeather, © 2014

See weather overviewHow to use our weather pages